Flag for Switzerland Weather past 2 weeks in Lugano, Switzerland

Now
63 °F

Light rain. Broken clouds.


Feels Like: 63 °F
Forecast: 57 / 83 °F
Wind: 2 mph from North

Location: Lugano Airport

Current Time: Jul 26, 2014 at 10:02:08 AM

Latest Report: Jul 26, 2014 at 9:20 AM


Visibility: N/A

Pressure: 29.92 "Hg

Humidity: 94%

Dew point: 61 °F

Location of LuganoLocation

Historic Weather in Lugano — Graph

°F

Lugano temperature yesterday

Maximum temperature yesterday: 81 °F (at 3:20 PM)
Minimum temperature yesterday: 61 °F (at 5:20 AM)
Average temperature yesterday: 70 °F

Past Weeks' High & Low Weather Summary

 TemperatureHumidityPressure
High88 °F (Jul 17, 3:50 PM)100% (Jul 12, 10:50 PM)30.15 "Hg (Jul 12, 10:50 PM)
Low37 °F (Jul 15, 8:50 AM)37% (Jul 11, 4:20 PM)29.74 "Hg (Jul 11, 12:20 PM)
Average71 °F75%29.95 "Hg
* Reported Jul 11 8:20 AM — Jul 26 8:50 AM, Lugano, Weather by CustomWeather, © 2014

Note: Actual official high and low records may vary slightly from our data, if they occured in-between our weather recording intervals... More about our weather records

Advertising

Lugano weather history for previous 24 hours

 ConditionsComfort  
Time TempWeatherWind HumidityBarometerVisibility
8:50 AM
Jul 26
63 °FLight rain. Broken clouds.1 mph94%29.92 "HgN/A
8:20 AM63 °FLight rain. Broken clouds.2 mph94%29.92 "HgN/A
7:50 AM63 °FLight rain. Broken clouds.2 mph94%29.92 "HgN/A
7:20 AM63 °FRain. Scattered clouds.3 mph94%29.92 "HgN/A
6:50 AM63 °FLight rain. Passing clouds.2 mph94%29.92 "HgN/A
6:20 AM63 °FLight rain. Mostly cloudy.2 mph94%29.92 "HgN/A
5:50 AM63 °FMostly cloudy.2 mph100%29.92 "HgN/A
5:20 AM63 °FFog.2 mph100%29.89 "Hg2 mi
4:50 AM63 °FFog.2 mph100%29.89 "Hg2 mi
4:20 AM63 °FLight rain. Passing clouds.1 mph100%29.92 "Hg6 mi
3:50 AM63 °FLight rain. Passing clouds.5 mph100%29.92 "Hg6 mi
3:20 AM63 °FHeavy rain. Fog.5 mph94%29.95 "Hg1 mi
2:50 AM63 °FHeavy rain. Fog.5 mph94%29.95 "Hg1 mi
2:20 AM64 °FThunderstorms. Partly cloudy.7 mph94%29.95 "HgN/A
1:50 AM66 °FThunderstorms. Passing clouds.6 mph88%29.95 "HgN/A
1:20 AM66 °FThunderstorms. Passing clouds.10 mph88%29.95 "HgN/A
12:50 AM68 °FThundershowers. Partly cloudy.2 mph78%29.92 "HgN/A
12:20 AM68 °FThunderstorms. Passing clouds.3 mph78%29.92 "HgN/A
11:50 PM
Jul 25
66 °FPartly cloudy.2 mph78%29.95 "HgN/A
11:20 PM68 °FThunderstorms. Passing clouds.2 mph73%29.95 "HgN/A
10:50 PM70 °FPassing clouds.1 mph69%29.95 "HgN/A
10:20 PM70 °FPassing clouds.7 mph69%29.95 "HgN/A
9:50 PM70 °FThunderstorms. Broken clouds.3 mph83%29.92 "Hg5 mi
9:20 PM70 °FThundershowers. Scattered clouds.1 mph83%29.92 "HgN/A
8:50 PM72 °FThundershowers. Passing clouds.1 mph83%29.92 "HgN/A
8:20 PM72 °FScattered showers. Passing clouds.2 mph83%29.89 "HgN/A
7:50 PM75 °FPassing clouds.3 mph69%29.89 "HgN/A
7:20 PM79 °FScattered clouds.3 mph58%29.89 "HgN/A
6:50 PM79 °FScattered clouds.5 mph58%29.89 "HgN/A
6:20 PM79 °FScattered clouds.3 mph58%29.89 "HgN/A
5:50 PM79 °FScattered clouds.5 mph61%29.89 "HgN/A
5:20 PM79 °FScattered clouds.6 mph61%29.89 "HgN/A
4:50 PM79 °FScattered clouds.7 mph61%29.89 "HgN/A
4:20 PM79 °FScattered clouds.7 mph58%29.92 "HgN/A
3:50 PM79 °FScattered clouds.8 mph54%29.92 "HgN/A
3:20 PM81 °FWarm.9 mph54%29.92 "HgN/A
2:20 PM79 °FPassing clouds.7 mph54%29.92 "HgN/A
1:50 PM79 °FPassing clouds.6 mph58%29.92 "HgN/A
1:20 PM77 °FPassing clouds.6 mph61%29.92 "HgN/A
12:50 PM77 °FPassing clouds.5 mph61%29.95 "HgN/A
12:20 PM75 °FPassing clouds.6 mph61%29.95 "HgN/A
11:50 AM75 °FPassing clouds.6 mph65%29.95 "HgN/A
11:20 AM73 °FPassing clouds.3 mph65%29.95 "HgN/A
10:50 AM73 °FPassing clouds.2 mph69%29.95 "HgN/A
10:20 AM72 °FPassing clouds.2 mph73%29.95 "HgN/A
Weather by CustomWeather, © 2014

See weather overviewHow to use our weather pages